Theta_e
306 306 306 307 307 308 307 307 308 309 310 310 311 311 310 311 311 311 312 313 311 311 312 311 312 313 313 313 312 311 315 323 332 342 346 346 347 346 345 344 343 343 343 343 343 343 345 345 346 345 345 344 343 343 342 339 336 335 336 336 336 336 336 332 324 321 325 329 329 329 331 332 332 333 334 334 334 333 333 334 335 334 333 332 334 335
306 307 307 307 308 308 308 309 309 309 309 309 311 311 309 309 311 312 312 312 310 311 313 312 312 313 314 314 312 312 322 333 335 341 346 346 346 345 344 344 343 343 343 343 343 342 343 344 345 345 345 344 343 343 342 340 337 336 337 337 336 338 336 330 323 326 331 332 332 332 333 333 333 333 333 334 334 333 334 334 334 334 332 333 335 335
306 307 307 307 310 309 308 310 309 309 309 309 310 311 311 310 311 312 312 312 310 311 315 314 311 312 313 313 313 315 321 329 332 339 345 345 345 345 344 343 342 343 342 342 342 342 342 344 345 345 344 344 343 343 342 341 340 338 338 338 337 338 335 331 329 332 333 334 334 334 334 334 333 334 333 334 334 333 333 333 333 332 331 333 335 334
306 307 307 308 310 309 308 309 310 310 310 310 310 311 312 310 310 312 312 312 311 311 316 315 312 315 315 312 314 316 317 323 330 337 341 344 344 343 342 341 341 342 342 342 342 341 342 343 344 344 344 344 343 342 341 341 341 340 339 338 338 337 336 335 334 334 335 336 336 335 335 335 334 334 334 334 333 333 333 331 330 330 331 334 335 333
307 306 306 308 309 309 309 309 309 309 309 310 309 311 312 310 311 313 311 314 313 312 314 314 312 315 318 314 314 321 323 326 330 334 338 341 343 342 341 341 341 342 342 342 341 341 341 342 343 344 344 343 341 341 341 341 341 341 340 338 337 333 334 336 335 335 336 336 336 336 335 335 334 334 334 334 333 332 330 328 329 331 333 335 335 333
307 306 306 308 309 309 309 308 308 308 309 310 309 309 311 310 311 311 310 315 315 312 313 312 311 317 324 318 312 325 333 332 330 331 334 337 340 341 341 341 341 341 341 341 341 341 341 341 342 343 343 342 341 340 341 341 341 342 340 338 336 331 330 335 336 335 336 336 336 335 335 335 334 334 334 333 332 330 327 327 331 334 335 335 334 334
306 306 306 308 308 308 309 309 308 308 308 309 309 309 310 310 310 310 310 313 316 315 314 311 311 321 327 318 317 331 339 335 331 332 331 333 337 339 339 339 339 340 341 341 341 341 341 341 342 343 342 340 340 340 340 341 341 341 340 339 337 333 330 334 336 336 336 337 335 334 334 334 334 333 333 331 330 328 326 329 334 335 335 335 335 335
306 306 306 307 308 308 309 309 309 308 309 310 309 308 310 310 309 310 309 312 317 317 315 314 311 316 318 315 323 332 336 333 331 333 331 330 334 336 336 338 338 338 339 340 341 340 340 340 342 343 341 339 339 339 340 341 341 341 341 339 337 335 334 335 337 337 337 336 334 334 334 333 333 333 332 330 329 328 329 332 335 335 335 335 335 335
306 306 306 306 308 308 308 310 309 308 310 311 308 308 310 310 309 310 309 312 315 313 315 318 313 312 316 321 328 330 332 335 335 335 334 330 331 334 335 336 337 337 338 339 339 339 339 339 341 341 339 339 339 339 341 341 341 341 340 340 338 337 337 336 337 338 338 336 333 334 334 333 333 333 332 332 331 330 330 333 335 335 335 335 334 334
305 306 306 305 307 308 308 310 309 309 311 309 307 309 310 310 310 310 309 311 312 311 313 315 313 312 316 327 335 333 335 340 339 336 333 329 330 333 334 335 336 337 338 338 338 338 337 338 340 340 339 339 339 340 342 341 341 341 340 339 338 337 337 337 337 338 337 335 333 333 334 334 333 332 333 334 332 330 331 333 335 335 335 335 334 334
305 306 306 306 307 308 309 309 307 309 311 307 307 309 309 310 311 311 312 310 310 313 315 315 313 312 314 324 333 335 340 345 341 336 332 328 329 331 333 335 335 336 337 337 337 336 336 338 339 339 338 338 339 340 341 341 341 341 340 338 337 337 337 337 337 338 337 335 334 334 334 334 333 332 332 333 333 332 333 334 335 335 335 334 334 334
305 306 306 306 307 308 309 309 306 308 310 307 308 309 309 311 311 310 311 310 310 315 319 317 314 311 313 321 329 332 339 341 335 334 334 331 330 331 332 334 335 335 336 336 337 336 337 338 338 338 338 338 338 339 341 341 341 340 339 338 337 337 337 338 338 338 337 335 334 334 334 334 333 332 331 332 333 333 334 335 335 335 335 334 334 334
306 306 306 307 308 308 309 309 307 307 308 308 309 310 310 311 310 309 310 311 313 315 316 314 311 311 314 319 323 326 334 337 333 328 327 327 328 330 332 333 334 335 335 336 336 336 337 338 338 338 338 338 338 339 341 341 341 340 339 338 338 337 338 338 338 338 336 335 334 334 334 333 332 331 331 332 334 334 334 335 335 335 334 334 334 333
306 306 305 306 308 308 309 309 308 308 307 307 308 309 310 310 310 310 310 311 314 316 314 312 311 313 315 317 320 318 320 324 325 324 323 323 326 330 332 333 335 335 335 336 335 335 337 337 338 338 338 337 338 340 341 341 341 340 339 339 339 339 339 338 338 337 336 335 334 333 333 333 332 331 331 332 334 334 334 335 335 335 334 333 333 332
307 308 308 306 307 308 309 309 309 310 308 307 308 310 310 311 312 312 312 313 314 316 314 310 312 316 316 319 322 320 317 316 318 324 326 325 326 329 332 333 335 335 334 336 335 335 337 337 338 337 337 337 338 340 341 340 340 340 339 339 340 340 339 338 337 336 335 335 334 333 334 333 333 332 332 333 335 334 334 335 335 334 334 333 332 332
306 308 308 306 307 307 308 309 309 310 310 307 308 309 309 312 316 315 315 320 320 315 313 312 316 322 321 320 324 325 327 326 326 328 328 328 329 330 333 334 334 335 335 336 336 336 337 337 337 337 337 337 339 340 341 340 339 339 339 339 339 339 339 337 336 335 335 335 334 333 333 333 333 333 334 334 335 334 335 335 334 334 333 332 332 331
306 309 309 306 306 307 307 309 308 310 312 309 307 309 309 310 318 316 312 319 320 314 316 316 315 319 317 318 328 332 337 336 332 331 329 329 331 331 333 334 334 335 335 335 336 336 337 337 337 337 337 337 339 340 340 339 338 338 339 339 338 338 337 336 336 335 335 334 334 333 332 332 333 334 335 335 334 334 335 335 334 333 332 332 332 331
308 310 310 306 306 307 306 308 308 308 311 310 308 310 309 308 315 319 315 318 318 315 320 317 313 317 316 319 333 337 340 337 332 333 332 330 332 332 333 334 334 335 336 335 336 336 337 337 337 337 336 336 338 339 339 338 338 338 338 339 338 338 337 336 336 335 334 333 333 333 332 333 334 335 335 334 334 334 334 334 333 332 332 332 332 331
308 310 310 307 306 307 306 307 308 307 306 309 310 309 311 312 315 316 315 318 316 315 319 315 315 320 317 322 337 340 341 339 332 331 332 332 333 333 333 335 334 335 336 336 336 336 337 337 336 336 335 336 337 338 338 337 338 338 338 338 338 338 337 336 334 333 333 333 334 334 334 334 335 335 334 335 334 334 334 333 333 333 332 332 331 330
309 309 310 307 306 307 307 307 308 307 305 308 310 307 311 316 316 313 314 317 317 317 321 316 315 320 320 330 345 343 339 336 332 332 333 332 333 333 334 335 334 335 335 336 336 336 336 336 335 334 334 335 337 337 337 337 337 337 337 337 337 337 337 335 333 332 333 334 334 334 335 335 334 335 335 335 334 334 334 334 333 333 332 331 330 329
308 309 310 309 307 306 308 308 307 308 306 307 309 308 308 310 312 314 314 314 316 321 325 320 317 324 326 331 340 341 336 332 331 333 333 332 333 333 333 334 334 335 335 335 335 335 335 335 334 334 334 335 336 336 337 337 337 336 336 336 336 336 335 334 333 333 333 335 335 333 334 334 335 335 335 334 334 334 334 333 333 332 331 331 330 329
309 312 313 311 307 306 308 308 308 308 307 308 309 309 309 310 313 314 312 313 315 319 322 319 319 329 332 329 333 337 333 330 330 331 332 333 333 333 333 334 334 335 335 335 335 334 335 334 333 333 334 334 335 336 337 337 335 335 335 335 335 335 334 334 333 333 335 335 335 334 334 334 335 335 334 334 334 334 333 333 332 332 331 330 330 329
311 312 312 311 308 308 309 309 309 309 308 309 310 309 310 312 314 316 319 318 313 313 318 317 317 329 336 331 333 334 330 329 329 330 332 333 333 334 334 334 335 335 335 334 334 335 335 334 333 333 334 334 335 336 336 335 334 334 335 334 334 334 334 334 334 334 335 335 335 334 334 334 334 333 333 333 333 332 332 332 331 331 330 330 329 328
311 310 311 313 312 309 309 308 308 309 308 308 310 309 309 310 314 323 331 326 315 315 320 315 316 330 333 326 329 329 326 328 330 330 333 332 333 334 333 334 335 334 335 335 335 335 335 334 333 333 334 335 335 335 335 334 333 333 334 334 334 334 335 335 335 335 335 335 335 334 334 333 333 332 332 332 332 331 331 331 330 329 329 329 328 327
311 313 312 312 311 309 309 309 307 308 308 308 310 309 308 310 312 317 323 319 314 318 320 318 324 335 331 324 328 330 328 331 332 331 333 333 333 335 334 334 335 334 335 335 335 336 335 335 334 334 335 334 334 334 334 333 333 333 334 334 334 335 335 334 334 335 334 334 334 334 333 332 332 332 332 331 331 330 329 329 329 329 328 327 325 323
313 317 316 314 314 311 310 310 308 309 309 309 311 309 308 310 309 313 318 315 314 316 316 320 329 336 337 332 331 333 331 333 332 331 333 334 334 335 334 334 334 335 336 335 335 336 335 335 335 334 335 334 333 334 333 334 334 333 334 334 334 336 334 333 333 334 333 333 333 332 332 332 332 331 331 331 330 329 329 329 328 327 326 324 321 319
312 317 319 319 318 313 312 313 312 311 310 310 310 309 309 309 309 314 318 317 320 319 317 327 333 333 342 342 335 333 333 333 333 333 334 334 335 336 335 334 334 335 336 336 335 336 335 335 335 334 335 334 333 333 334 335 335 334 334 334 336 335 333 333 333 332 331 332 332 330 329 330 331 330 330 330 329 329 328 327 326 325 323 320 317 315
311 313 317 320 317 313 314 315 312 311 311 310 311 310 310 311 311 314 316 319 323 318 319 335 336 331 343 347 337 334 333 333 334 334 334 334 335 336 335 335 335 335 336 336 336 336 335 335 334 334 334 334 334 334 334 335 335 335 335 335 335 334 333 333 332 330 330 330 329 329 329 330 330 330 330 330 328 328 326 325 323 321 319 316 314 313
313 313 316 318 316 313 313 313 312 311 311 311 312 311 311 314 313 312 317 324 322 314 321 335 334 336 348 346 337 334 331 331 334 333 334 335 335 335 335 335 335 335 336 336 336 336 335 335 335 334 334 334 334 334 334 335 335 336 336 335 333 332 333 334 331 328 329 329 329 330 330 330 329 329 329 328 327 326 324 322 319 317 315 314 313 313
312 318 322 317 314 315 315 313 311 311 311 311 312 313 313 316 315 314 322 328 321 318 328 334 336 343 346 338 333 331 327 329 333 333 334 335 335 335 335 335 335 335 335 335 335 335 335 335 334 334 334 335 335 335 335 335 335 335 335 335 333 332 333 333 331 329 329 329 330 330 330 329 329 328 328 326 325 323 321 318 316 314 314 313 312 312
311 320 323 318 314 316 316 314 310 310 313 312 312 314 314 315 315 317 326 327 321 325 332 331 337 346 340 330 329 328 326 331 335 334 335 335 335 335 335 335 335 334 334 335 334 335 334 334 334 334 335 335 335 335 335 335 335 334 334 334 333 332 331 331 330 329 328 328 329 329 329 328 327 326 325 323 321 319 317 315 313 313 313 312 311 311
313 317 320 322 321 316 315 315 312 312 315 313 313 315 315 318 318 318 324 325 324 331 333 328 333 344 339 330 328 328 329 333 334 334 335 335 335 335 334 335 334 334 334 334 334 334 334 334 334 334 334 334 334 335 334 335 335 334 333 332 331 331 331 329 328 327 326 327 327 328 328 326 324 323 322 320 318 317 314 312 312 312 312 312 311 310
317 314 315 323 323 313 313 317 314 314 315 314 318 320 317 320 321 317 319 323 326 333 336 331 330 339 335 330 329 330 331 334 334 334 335 334 335 335 334 334 334 334 334 334 334 334 334 334 334 334 334 335 334 335 335 335 335 334 333 331 329 329 330 329 326 325 324 325 326 326 324 323 322 321 319 317 316 314 312 311 312 312 312 311 310 309
318 315 313 323 325 314 314 317 314 313 315 316 322 323 317 317 321 318 319 323 324 327 333 334 329 330 331 330 329 330 330 332 334 334 335 335 335 334 334 334 334 334 334 334 334 334 334 334 334 334 335 335 334 335 335 335 335 334 332 331 328 327 327 326 324 324 325 324 324 323 321 320 320 319 317 315 313 312 312 311 311 311 311 311 309 308
319 316 315 323 326 318 320 321 315 314 319 321 321 319 318 319 321 321 320 322 322 322 328 332 328 328 332 330 328 329 330 331 332 332 334 335 334 334 334 334 334 334 334 334 334 334 334 334 334 334 334 335 334 334 334 334 334 333 332 330 328 326 325 324 323 324 325 324 322 321 319 319 318 317 315 313 313 312 312 311 311 311 311 310 309 307
316 316 318 320 317 315 321 323 318 317 320 324 321 318 320 319 317 319 318 316 320 324 328 333 331 330 331 330 328 330 331 331 331 331 333 333 333 334 334 333 334 333 334 334 334 333 334 333 334 335 334 334 334 334 334 333 332 331 330 329 328 325 323 322 322 323 323 322 320 318 317 317 316 315 313 313 312 312 312 311 311 311 311 310 307 306
313 316 324 322 314 316 322 321 321 323 321 323 323 319 319 316 313 321 323 316 318 321 325 331 333 331 331 330 330 332 331 331 332 332 332 333 333 333 333 333 334 333 333 334 333 333 332 332 334 334 334 334 333 333 333 332 331 330 329 328 327 323 320 320 322 322 321 320 319 317 317 316 314 313 313 312 312 312 311 311 310 311 311 309 306 305
311 313 324 324 315 318 324 319 322 325 322 324 327 321 316 315 314 320 324 319 318 317 318 326 332 332 331 331 331 331 331 335 339 336 332 333 333 333 334 334 334 334 333 333 333 333 333 332 333 334 334 333 333 332 332 332 331 329 327 327 327 323 320 321 322 321 320 319 319 318 317 315 313 313 312 312 311 311 311 310 310 310 310 307 305 304
312 312 321 326 320 323 329 324 321 323 321 323 327 323 317 314 314 317 319 319 319 315 315 324 330 331 331 331 330 330 335 346 350 338 330 333 334 332 333 334 333 334 333 333 333 332 332 333 333 333 333 333 332 331 331 331 330 328 327 327 326 322 321 321 321 320 318 318 318 317 316 314 312 312 312 311 311 311 310 310 310 309 307 304 303 304
321 321 323 324 321 324 329 323 317 320 323 321 323 322 317 313 313 316 319 322 319 315 317 325 329 330 331 330 330 333 339 345 345 333 329 333 334 332 333 334 333 333 333 333 332 332 332 332 332 331 331 332 331 331 331 330 328 328 328 327 323 321 321 321 320 318 317 317 316 314 314 313 312 311 311 310 310 310 309 309 309 307 303 301 301 303
322 322 320 323 323 323 325 321 315 319 323 319 320 320 316 313 316 322 325 325 319 316 320 326 327 329 331 330 331 334 333 331 330 328 330 332 332 332 333 333 333 333 333 333 332 331 331 331 331 331 331 331 331 330 330 328 327 327 327 324 321 321 322 320 318 317 316 316 314 313 312 312 311 311 310 309 309 309 309 308 306 303 300 299 300 301
320 316 317 323 320 317 322 322 317 319 320 317 319 318 314 315 322 326 325 322 320 320 322 325 327 329 331 330 330 330 327 326 327 328 329 331 331 332 332 332 333 333 332 332 331 331 331 331 330 330 330 330 331 330 328 328 328 327 324 321 321 322 321 319 317 316 315 314 312 311 311 311 311 310 309 309 309 308 307 305 302 299 297 298 299 300
316 314 317 318 312 313 323 323 319 322 321 317 319 322 320 321 325 324 321 321 322 323 323 324 326 329 330 331 330 328 327 328 328 329 330 332 331 331 332 332 332 332 331 331 331 330 330 331 330 330 330 329 329 329 327 327 327 325 322 321 321 321 320 318 316 315 314 313 311 310 310 310 310 309 309 308 308 307 305 302 298 296 296 297 298 299
314 314 318 318 314 316 322 319 317 320 320 317 320 325 324 323 323 322 322 322 323 324 323 324 326 327 328 330 330 329 328 327 328 330 332 332 331 332 332 332 332 331 331 330 330 330 330 330 330 330 330 329 329 328 327 327 327 323 321 322 321 319 318 316 315 314 313 311 310 310 309 309 309 309 308 307 307 306 303 299 296 296 296 296 297 298
315 313 315 319 318 315 315 317 318 317 316 317 320 322 322 322 323 323 324 323 323 324 324 324 325 326 328 329 330 329 329 327 327 329 330 331 331 331 332 331 331 331 331 330 330 330 330 331 331 330 329 328 328 327 326 326 325 323 322 323 321 319 318 316 314 313 311 310 310 310 309 310 310 308 307 307 307 306 304 300 297 295 296 296 296 296
314 311 312 317 319 316 315 317 318 317 317 319 320 320 321 322 323 324 324 324 324 325 325 325 325 325 327 328 330 330 329 327 327 327 330 331 331 330 331 331 331 331 330 330 329 329 329 329 330 329 328 326 325 325 325 324 324 323 323 323 322 320 318 316 314 312 310 310 310 310 310 310 309 308 308 308 307 307 306 303 299 296 295 295 295 295
315 312 314 319 323 322 321 321 318 318 318 318 319 321 321 321 322 323 324 324 324 324 326 326 325 324 325 327 329 330 329 328 326 326 329 330 330 330 330 330 330 330 330 329 329 328 328 328 327 327 327 326 324 324 323 324 323 323 323 322 321 319 316 315 313 311 310 310 310 310 310 310 309 308 308 308 308 307 306 304 301 297 295 295 295 294
315 314 315 319 321 321 321 319 317 317 318 318 319 321 320 321 322 322 322 323 324 324 326 326 326 325 324 326 328 329 329 328 326 326 327 328 329 329 329 329 329 330 329 329 329 328 327 327 327 326 326 326 325 324 323 323 323 322 322 321 319 317 315 314 313 311 310 310 310 310 310 309 308 308 308 308 307 306 304 303 300 297 295 295 295 294
315 316 316 316 319 321 320 317 317 319 321 320 319 320 320 321 321 322 322 323 323 324 325 326 326 325 324 325 326 328 327 326 325 325 325 325 326 327 328 329 329 328 328 328 328 327 327 327 326 325 325 326 326 325 323 323 322 321 320 319 318 315 314 313 312 311 310 310 310 309 309 309 308 308 308 307 305 303 302 301 298 296 295 295 295 294
316 319 317 316 321 323 321 318 318 321 323 321 319 320 321 320 320 321 322 322 322 323 324 325 325 325 325 324 325 326 326 326 325 325 324 324 324 324 325 327 328 328 328 327 326 326 326 326 325 325 324 325 326 325 323 322 321 320 319 318 316 314 313 312 311 310 310 310 309 309 309 309 308 308 307 304 301 300 299 298 296 296 296 296 296 296
316 317 316 318 321 321 318 317 316 317 319 320 319 320 320 320 321 322 322 322 323 323 323 324 325 325 325 324 324 325 326 326 326 324 322 322 323 324 324 325 326 327 327 326 325 324 323 324 324 323 323 324 324 323 322 321 320 318 317 317 315 313 313 312 311 310 310 310 309 309 309 308 307 307 306 302 298 297 297 297 297 297 297 297 298 298
Wind_Speed
11 5 6 8 7 9 8 8 9 3 5 9 6 5 6 4 3 4 4 6 6 7 7 9 8 9 12 14 12 10 10 9 10 15 21 24 26 27 29 32 35 36 35 33 34 35 37 37 36 35 35 35 35 32 28 25 25 27 26 25 25 24 23 22 23 27 28 27 25 25 25 23 20 18 17 15 14 12 10 8 6 5 5 6 7 8
10 8 9 8 5 8 8 7 9 6 3 6 6 5 5 5 4 5 4 4 3 5 5 7 8 10 12 13 11 8 8 7 12 16 19 24 26 28 31 34 36 33 30 31 31 33 36 37 37 36 35 35 34 33 30 28 29 30 28 26 23 20 20 21 24 27 27 26 25 24 23 21 18 17 16 14 12 10 8 7 6 6 7 7 8 9
8 8 7 7 5 7 8 7 8 9 4 3 3 5 4 3 3 4 5 3 3 5 4 5 8 9 11 13 9 8 7 8 20 26 27 29 27 28 31 33 33 29 27 30 31 32 35 37 37 36 35 35 35 33 31 31 31 30 27 25 22 20 21 24 25 26 26 25 24 22 21 19 17 16 14 13 11 9 8 8 8 8 8 9 9 8
7 6 7 8 6 8 7 8 9 7 6 3 3 5 3 3 2 3 4 3 1 3 2 5 6 6 7 9 7 7 7 8 18 25 27 31 32 33 35 35 34 32 30 33 34 34 35 37 38 38 37 36 35 33 32 33 31 28 25 24 23 21 23 27 27 26 26 24 22 21 20 19 17 15 14 14 12 10 10 9 9 9 9 10 9 8
4 3 10 11 7 9 7 7 11 7 6 5 4 4 3 3 4 5 3 3 3 2 2 6 2 5 4 7 6 3 4 6 13 17 17 24 30 32 31 30 33 34 34 35 35 35 35 37 39 39 39 38 36 34 34 34 30 26 24 24 23 19 21 27 29 28 26 24 22 22 21 20 18 17 15 15 13 12 11 10 9 9 10 11 9 8
5 3 12 13 9 9 8 7 10 9 6 5 5 6 6 5 4 3 1 3 2 3 3 4 3 6 4 7 7 2 2 5 9 12 14 21 26 26 25 26 29 32 34 34 34 34 34 37 39 40 40 38 36 35 35 32 28 25 23 23 22 19 21 27 29 30 28 24 23 22 22 21 19 18 16 14 13 12 11 10 10 11 11 11 9 8
3 3 7 12 11 10 8 6 8 10 7 4 5 8 7 6 4 2 2 4 3 5 4 2 5 5 5 5 6 3 5 6 6 7 12 19 23 25 28 29 29 31 32 31 31 32 34 36 40 42 41 38 36 35 34 30 27 25 23 24 24 22 24 28 29 31 29 25 23 22 21 19 17 15 14 13 12 11 11 11 11 11 11 10 9 8
6 7 5 8 11 9 8 6 6 9 7 3 6 10 8 5 5 3 3 3 3 3 4 1 4 3 4 4 4 2 5 4 4 5 7 13 21 28 31 30 28 29 30 30 30 32 34 38 41 43 41 38 36 35 33 29 27 26 25 26 27 26 27 29 29 31 29 25 23 23 21 19 15 13 12 12 12 11 11 12 11 11 11 10 9 8
7 11 6 6 10 8 7 6 7 9 6 5 8 11 8 6 6 3 4 2 1 2 4 4 1 3 5 5 3 2 3 4 6 8 8 12 23 29 29 27 25 26 28 29 31 34 36 39 40 40 39 37 36 35 32 28 26 26 26 27 28 28 29 30 30 30 29 25 23 23 22 20 16 14 12 12 12 12 12 12 11 11 11 10 9 8
4 14 12 7 6 6 6 6 8 10 5 5 9 10 7 6 4 3 3 2 2 2 5 5 2 2 4 5 0 3 2 5 7 8 9 14 21 24 24 25 25 25 27 29 31 34 35 37 37 37 36 36 35 34 30 26 25 26 27 28 28 28 30 31 31 30 28 26 24 24 23 20 17 15 14 13 12 13 13 12 12 12 12 11 10 10
2 11 15 7 5 6 8 7 8 11 7 6 8 7 5 2 1 2 1 1 1 4 6 6 4 3 3 5 3 4 4 7 7 7 8 10 15 21 24 28 28 27 28 28 30 31 32 33 34 35 35 34 34 33 28 25 26 26 26 26 26 28 31 32 31 30 28 26 24 23 23 21 18 16 15 14 14 14 13 12 12 12 13 12 11 11
5 4 8 6 9 9 8 7 7 9 8 7 6 6 5 2 2 2 2 1 4 5 5 6 6 5 4 5 4 5 6 7 8 8 9 10 15 23 28 30 29 28 28 28 29 29 30 33 34 34 34 33 33 31 28 26 26 26 26 25 26 28 30 31 30 30 29 26 24 23 23 22 18 16 16 16 15 15 13 12 12 13 13 13 12 12
6 3 3 5 13 14 9 6 5 6 7 6 5 6 6 3 2 3 3 2 4 4 3 5 6 3 5 6 7 8 9 9 9 11 13 12 17 25 29 30 29 27 27 28 29 30 31 34 35 34 34 33 33 31 28 27 27 27 26 26 27 28 29 30 30 30 29 25 23 24 23 20 17 16 17 16 15 14 12 11 12 13 14 13 13 12
4 3 4 5 10 13 12 8 6 7 7 6 6 7 7 5 5 7 4 1 2 3 3 3 3 2 4 5 9 12 12 12 14 17 14 12 20 28 29 28 27 26 28 29 30 32 33 35 35 34 33 33 32 30 27 27 26 27 28 29 29 29 29 31 30 29 28 25 24 23 20 17 16 17 18 16 14 13 11 11 12 14 14 13 13 12
5 3 6 6 5 11 13 8 7 7 6 6 3 5 5 4 5 5 3 3 3 2 2 2 2 3 3 4 8 10 9 9 11 15 12 12 20 26 25 24 25 26 28 30 31 33 34 34 33 33 33 33 32 28 26 26 27 28 30 31 31 32 32 32 30 29 27 25 24 22 19 18 17 17 17 16 13 11 10 11 13 14 14 13 13 11
5 3 5 7 6 12 12 6 7 9 6 4 3 5 4 5 5 3 3 5 4 2 2 2 3 4 4 4 3 2 3 1 5 10 12 14 19 24 24 24 26 26 28 31 32 33 33 33 33 33 33 32 31 27 26 27 28 30 31 31 32 33 32 30 29 27 25 23 22 20 19 19 17 17 17 16 13 11 11 12 14 14 13 13 11 10
5 3 4 8 7 10 13 10 8 9 6 2 3 4 4 4 6 4 2 1 4 4 3 2 3 4 3 4 4 4 4 4 5 7 10 15 21 24 23 25 27 28 30 32 33 33 33 32 32 32 32 32 30 28 27 28 30 31 31 31 30 30 30 28 27 25 23 22 21 20 18 18 17 17 16 14 12 12 13 14 13 13 12 12 11 9
6 2 5 10 9 9 15 15 8 9 9 5 5 6 2 3 3 3 2 2 4 3 4 1 4 3 1 3 4 5 5 3 4 5 8 14 20 20 21 25 29 30 30 31 31 32 32 32 32 31 31 31 29 28 29 30 31 31 30 30 30 30 29 27 25 24 23 22 20 19 19 18 17 16 14 11 11 13 14 14 14 13 12 11 9 8
4 2 5 8 10 6 10 13 7 7 8 6 6 6 3 3 2 1 2 1 2 3 3 2 1 3 4 4 4 1 6 6 6 8 10 13 16 19 22 27 29 29 29 29 31 32 33 33 32 31 30 29 29 29 30 31 31 30 30 30 30 30 28 25 22 21 21 20 19 18 18 19 18 15 13 12 12 14 14 14 14 13 12 10 8 8
1 2 1 6 9 6 5 7 7 6 4 3 6 6 3 3 4 3 3 2 3 3 2 1 2 3 5 6 6 7 9 9 9 10 11 12 17 21 26 30 32 32 31 31 32 32 32 32 31 30 30 29 30 30 31 31 30 30 29 28 27 28 27 23 20 18 19 19 18 17 18 18 17 15 14 14 14 15 15 15 14 13 11 9 8 9
2 1 2 3 4 7 5 6 8 9 6 4 7 7 4 1 2 3 2 1 3 3 2 1 1 5 6 5 7 7 8 10 11 10 10 13 19 25 28 31 33 34 32 32 33 31 30 30 29 29 29 30 30 31 31 31 29 28 27 26 25 25 23 21 18 17 18 18 17 17 17 16 15 15 15 16 16 17 17 16 14 12 10 9 9 10
1 0 1 2 4 6 5 4 6 9 8 6 5 5 6 4 3 4 2 1 2 1 3 3 1 6 6 3 5 6 6 7 7 7 8 13 21 26 27 29 30 31 32 31 31 30 29 29 28 29 30 30 31 31 31 30 28 26 25 24 23 21 21 20 17 17 19 20 19 18 16 15 15 14 16 18 19 19 17 14 13 11 9 9 10 11
3 1 1 2 4 5 4 5 9 11 9 6 4 5 6 5 4 5 5 3 1 0 1 3 1 6 5 3 3 4 4 7 10 9 8 11 18 22 23 26 27 29 30 29 29 29 28 29 29 29 30 30 30 31 30 28 27 25 24 23 22 22 21 19 17 20 22 21 20 18 17 17 16 15 17 20 19 16 14 13 12 12 11 11 11 11
4 1 1 1 0 1 3 2 6 10 9 6 4 5 7 7 5 5 5 4 4 3 1 2 2 6 5 4 3 3 5 9 13 15 13 12 15 18 21 24 26 27 27 27 28 28 29 29 29 29 29 29 29 29 28 27 26 25 23 23 22 22 20 17 18 22 22 21 21 19 19 20 19 16 17 19 16 15 15 14 13 12 11 11 11 11
4 1 1 2 4 3 4 3 3 6 7 6 5 4 6 8 7 4 2 3 3 4 4 4 4 7 5 3 3 2 6 7 10 16 20 18 17 19 22 24 25 25 26 27 28 28 29 30 29 29 28 27 27 27 26 26 26 26 24 23 22 21 19 17 19 23 23 22 22 22 21 21 18 16 17 18 18 17 15 14 12 12 12 12 11 11
5 2 3 4 5 6 5 4 4 4 4 3 4 6 6 9 11 6 2 3 2 3 4 5 5 7 6 4 6 5 7 7 8 15 20 20 21 23 23 25 26 25 26 29 29 29 29 29 29 29 28 27 26 25 24 24 25 26 24 23 22 21 19 19 21 23 24 23 23 24 24 21 18 18 19 19 17 15 13 12 12 12 12 11 10 9
2 1 3 5 5 7 7 5 3 5 5 3 6 9 8 8 10 7 4 3 4 3 3 6 5 4 7 4 3 3 5 7 7 11 16 19 22 24 24 26 26 25 26 29 29 29 29 28 29 29 27 26 25 24 25 25 25 26 25 24 23 21 19 20 22 24 24 24 24 26 25 22 20 20 18 16 14 14 14 14 13 12 11 10 9 8
0 3 3 5 6 8 6 7 8 9 8 8 9 11 10 8 8 7 5 5 5 5 4 7 4 3 7 3 1 2 4 6 5 8 14 19 21 23 24 27 27 25 26 29 30 30 29 29 29 28 27 26 25 25 26 26 26 26 25 24 22 20 19 21 25 27 26 26 26 24 22 21 20 18 16 15 16 16 15 14 13 12 11 10 9 9
1 4 5 4 4 5 4 7 10 12 9 9 11 11 9 9 10 10 9 7 7 6 7 6 6 5 6 2 3 4 3 4 4 9 15 19 20 23 26 28 29 28 26 28 30 30 30 30 29 29 28 26 26 27 26 26 27 26 25 24 21 20 22 24 27 28 27 26 24 20 19 18 17 16 17 17 17 16 14 14 13 12 12 12 11 11
2 3 4 3 1 1 1 6 9 12 10 8 11 13 11 11 13 11 8 6 6 4 5 5 7 7 8 3 3 3 4 7 9 14 17 18 20 24 26 28 30 31 29 29 30 31 31 30 30 30 29 28 28 28 27 27 27 27 28 25 21 23 27 27 26 26 25 26 24 19 17 17 17 18 18 18 16 15 14 14 14 14 14 13 12 13
1 3 2 2 2 5 4 2 7 11 12 9 7 8 10 10 9 6 4 4 3 1 2 4 3 6 6 3 3 3 9 13 12 15 18 18 21 25 25 26 29 31 31 29 30 31 31 31 31 30 30 30 30 29 29 29 28 28 29 26 25 28 30 29 28 28 28 28 25 19 17 19 19 19 18 16 15 14 14 15 15 15 14 13 13 13
1 1 2 3 4 4 4 3 6 8 11 10 5 6 8 8 6 4 3 5 6 4 2 4 1 5 4 3 5 4 10 12 10 12 17 18 23 27 25 25 29 32 33 31 31 32 31 32 32 32 31 31 30 30 30 29 29 29 29 29 30 30 29 28 29 30 29 28 23 18 17 18 18 17 15 13 12 13 15 16 16 16 13 12 12 13
1 1 3 2 4 2 4 4 7 8 9 5 4 7 8 6 5 3 1 3 6 6 6 4 4 6 4 6 6 5 7 8 9 14 18 20 23 26 26 27 29 31 32 32 32 32 31 31 32 32 32 31 31 31 29 28 30 30 28 28 31 31 29 28 29 29 27 24 19 17 17 17 17 16 13 13 15 16 15 15 15 14 12 13 13 13
2 3 2 1 4 1 3 2 6 8 5 5 6 5 5 4 6 6 2 5 7 4 3 5 5 3 4 6 7 6 7 9 13 17 21 23 24 23 24 26 28 30 31 31 31 31 30 31 31 30 31 30 31 30 28 27 28 28 27 27 31 32 31 29 28 26 22 18 17 18 18 17 16 14 14 17 19 18 15 14 14 13 12 12 12 14
2 2 1 1 4 2 2 4 6 4 5 6 4 3 4 4 7 7 3 2 5 3 1 2 1 1 3 5 7 9 10 11 14 16 18 24 28 27 26 27 29 31 31 30 28 27 27 28 29 30 30 31 31 30 29 27 27 28 28 28 30 31 30 29 27 23 19 17 18 19 19 17 16 16 17 20 21 18 15 14 14 13 12 11 12 14
1 2 1 2 3 2 2 5 4 3 5 4 3 1 3 2 2 5 4 3 1 4 3 1 1 2 4 6 9 12 14 15 14 13 15 22 28 30 29 30 31 31 31 31 30 29 27 27 29 31 31 32 32 30 29 27 27 29 30 30 30 30 29 28 25 21 18 18 19 19 17 17 17 19 20 22 20 18 16 15 14 13 11 11 13 15
3 2 1 2 2 3 4 3 1 1 3 4 3 1 2 1 0 4 4 1 2 3 5 4 3 4 6 8 12 14 15 13 10 9 16 23 25 27 28 30 31 30 30 31 31 30 28 28 31 32 32 33 31 30 29 28 28 30 32 31 30 29 28 25 20 17 17 17 17 17 16 17 19 20 21 21 20 18 17 16 14 12 10 11 15 17
4 3 2 3 2 2 5 4 3 4 2 3 5 3 1 3 5 4 6 2 5 4 4 6 5 6 6 7 13 15 12 8 2 5 16 23 24 25 26 27 28 29 30 29 29 29 29 30 32 33 33 33 32 30 30 29 30 33 33 31 29 28 26 21 17 16 17 17 17 17 17 18 20 21 21 21 20 19 18 16 13 12 11 12 16 18
2 1 1 4 2 2 5 4 2 2 1 4 7 6 6 5 6 4 6 1 6 6 4 7 7 7 7 8 13 13 8 4 3 7 17 24 24 24 26 27 27 28 28 28 28 29 31 32 32 33 34 33 32 30 28 29 32 34 32 30 30 29 24 20 18 18 18 18 19 19 18 19 20 20 21 20 19 18 17 15 13 13 14 15 17 19
5 4 3 5 3 2 4 3 1 2 1 3 5 8 9 6 1 6 4 4 7 4 4 8 9 10 11 12 12 8 5 5 5 7 17 24 21 21 23 24 26 28 28 28 28 28 30 32 32 33 34 32 28 26 27 32 35 34 31 32 30 26 21 19 20 20 19 19 20 20 19 18 19 20 20 19 18 17 16 14 14 15 17 18 19 20
4 3 3 4 3 3 4 4 1 2 2 3 6 10 11 5 4 6 3 7 4 3 4 11 13 13 16 18 13 5 2 2 2 6 17 21 20 20 21 21 24 26 27 28 28 28 30 31 30 30 29 27 25 25 29 34 34 32 32 32 28 22 19 19 19 19 19 18 19 21 20 18 18 19 19 17 17 16 15 14 15 17 19 20 21 21
2 3 3 3 3 3 3 4 1 2 3 4 9 13 8 3 4 3 4 4 4 4 3 12 18 18 18 18 11 2 2 2 1 8 18 21 21 22 21 22 24 26 27 27 27 27 29 30 29 28 26 26 26 27 30 33 33 33 33 31 25 19 19 19 18 18 17 17 20 22 21 20 19 19 18 17 16 16 16 16 17 19 20 20 21 21
1 1 1 0 1 2 3 4 3 1 3 6 9 8 4 3 3 4 4 4 4 4 1 10 19 21 20 19 11 3 3 2 3 11 20 21 21 22 23 24 25 26 28 28 26 27 28 29 29 28 27 28 28 29 32 33 34 34 32 27 21 20 20 18 17 17 16 19 22 23 22 21 20 19 18 17 17 17 18 18 19 19 19 19 20 20
1 1 1 1 1 3 3 2 1 4 4 9 7 1 0 2 3 4 5 5 5 5 2 6 15 21 22 23 18 9 4 4 6 13 21 23 23 23 24 24 25 26 27 27 27 27 27 28 29 30 30 30 30 31 32 33 33 32 29 23 21 21 20 18 17 17 18 22 24 24 23 22 20 19 18 18 19 18 18 19 19 19 18 18 18 19
1 2 2 2 1 2 3 3 3 4 4 8 6 2 3 5 5 6 6 8 10 9 6 3 7 16 20 23 23 17 10 7 8 13 20 24 25 25 25 24 25 26 26 26 27 27 27 27 29 31 32 33 33 33 33 33 32 30 27 22 21 20 19 18 18 19 22 25 26 25 24 23 20 19 20 19 18 18 18 19 20 19 19 18 17 17
1 1 1 1 0 1 1 1 2 3 4 7 6 5 7 8 8 8 9 11 13 12 10 10 5 10 17 22 25 22 15 10 10 13 20 24 25 25 25 25 24 24 25 26 27 27 28 28 29 31 33 34 34 34 33 31 30 28 25 23 23 21 20 20 20 22 25 27 26 25 25 24 22 21 19 18 16 15 15 16 18 19 19 18 17 16
2 1 2 1 1 2 2 2 5 4 6 9 10 8 9 10 9 9 10 11 13 14 13 13 9 5 13 19 24 24 19 13 11 14 20 24 26 27 26 25 25 25 25 26 27 27 28 29 29 31 32 32 32 32 31 29 27 26 25 25 25 24 22 21 21 24 27 27 26 26 25 24 23 22 20 18 17 15 14 14 16 18 18 18 17 17
3 3 3 1 2 2 2 4 6 4 6 11 13 11 11 11 9 9 10 11 13 14 14 14 12 5 8 16 21 22 19 14 11 13 17 20 23 26 27 26 26 25 24 25 26 27 27 28 29 30 30 29 28 29 30 29 28 27 26 26 25 24 23 22 23 25 27 27 26 26 25 24 23 22 21 19 18 16 16 16 17 17 16 15 15 15
3 4 2 1 2 3 1 5 7 5 6 11 13 11 11 11 10 9 9 11 12 13 14 15 13 8 4 10 16 18 16 13 11 13 13 13 14 19 24 25 24 24 24 24 25 26 27 28 29 31 31 30 28 28 30 29 29 29 27 25 25 25 24 23 24 27 28 27 26 26 25 24 23 22 22 21 19 18 17 16 16 15 13 12 11 10
2 2 1 2 4 2 1 4 4 2 1 6 10 11 10 10 10 9 8 10 12 13 14 16 15 10 5 6 11 14 14 13 12 11 10 10 10 13 17 22 23 22 22 22 23 25 27 27 29 31 32 31 29 29 30 30 31 30 27 25 25 25 25 25 27 28 29 27 26 26 25 25 24 23 22 21 21 22 21 19 17 14 12 13 13 11
2 1 1 2 3 2 2 4 3 1 2 3 6 9 9 9 9 9 8 10 12 12 13 15 15 12 6 4 7 10 12 13 12 9 9 13 16 15 16 20 22 21 22 23 24 26 27 27 28 30 31 31 30 30 32 33 34 30 27 25 26 25 24 25 28 30 29 28 26 26 25 25 24 24 22 21 23 24 23 22 20 17 15 15 15 14
Wind_Direction
174 186 208 202 195 184 183 175 188 198 132 152 142 145 173 171 234 234 231 248 185 171 216 204 194 211 231 243 244 230 195 185 190 180 178 183 187 192 196 201 207 211 214 216 218 217 218 219 220 220 220 219 218 218 216 212 209 209 212 210 200 195 197 196 190 189 189 186 182 183 187 189 189 189 191 195 199 202 205 213 227 244 260 264 261 256
175 209 217 197 175 166 170 159 180 209 122 132 152 145 157 173 219 236 224 257 200 173 230 204 194 217 226 239 239 194 164 166 174 175 182 185 188 194 198 204 208 210 211 215 218 216 215 217 218 219 219 218 218 218 215 213 211 210 212 215 205 193 198 200 192 190 190 188 187 190 192 193 193 192 194 198 202 205 211 224 240 254 258 260 264 258
197 219 194 168 156 148 157 154 171 206 187 124 147 134 144 193 226 266 260 277 156 178 248 197 191 226 230 238 239 180 171 191 184 181 184 187 190 196 202 207 208 207 209 214 217 216 214 214 216 218 218 218 220 220 216 214 215 213 212 214 205 196 200 203 200 197 194 192 194 198 199 198 199 198 196 202 208 214 224 235 246 254 252 256 262 252
205 213 157 154 158 141 151 163 162 197 208 156 121 128 163 208 169 211 257 297 187 187 208 166 190 247 245 253 257 188 185 196 189 189 189 189 192 198 204 209 207 204 208 213 216 215 213 212 214 216 218 219 220 218 215 215 217 215 214 213 206 203 207 207 206 203 199 198 199 202 206 206 206 203 199 204 213 221 231 240 246 249 246 252 255 243
231 218 156 154 163 157 158 172 168 185 209 182 155 154 174 200 186 192 240 320 317 279 140 138 203 286 253 243 255 203 180 187 186 188 193 197 200 203 208 210 208 206 208 211 214 213 211 211 213 215 219 220 217 216 217 218 218 216 216 214 207 206 213 212 208 205 205 205 205 205 207 207 207 205 205 209 218 226 234 240 240 240 242 247 247 240
250 233 162 160 172 172 167 179 181 180 189 205 196 179 183 197 215 235 344 30 38 260 236 146 212 279 269 235 246 265 170 189 180 179 193 202 205 209 212 213 212 210 210 212 213 211 210 211 213 216 219 218 216 217 219 220 221 220 217 215 211 208 212 217 214 207 207 209 210 208 206 206 205 204 209 218 226 230 231 233 233 235 241 242 241 241
225 228 167 169 173 172 180 189 191 175 164 214 204 177 183 182 199 252 54 87 159 232 259 167 188 258 304 261 252 240 195 202 188 184 199 201 204 210 213 215 213 211 210 211 211 210 210 212 215 218 218 216 216 218 219 220 220 220 218 214 215 215 213 217 218 210 207 210 212 211 210 209 207 208 215 219 222 224 222 226 233 237 239 238 239 242
178 197 195 182 173 176 191 189 188 169 152 221 192 163 171 174 193 209 101 124 205 250 300 332 158 216 273 263 281 230 197 227 231 216 216 205 207 212 215 216 214 211 209 207 207 209 212 217 219 218 217 217 219 219 219 219 218 218 218 215 218 223 218 216 217 213 210 211 211 211 212 210 212 220 221 214 213 216 218 226 235 239 239 239 241 244
166 192 198 179 182 190 186 166 161 156 152 218 183 159 172 192 196 164 117 176 292 360 296 303 122 188 254 274 336 79 178 244 244 223 221 210 211 214 215 216 214 212 209 206 207 210 215 220 220 217 216 217 219 221 222 220 217 217 218 217 219 224 221 216 217 216 212 212 211 211 212 212 216 219 212 209 212 215 221 230 236 238 238 239 242 244
172 193 191 174 192 193 161 148 152 157 173 196 167 152 164 196 196 144 146 215 320 313 244 257 234 196 266 280 336 96 185 240 237 229 224 216 215 214 211 212 212 209 207 207 210 213 217 220 218 215 215 216 219 223 224 219 214 215 219 219 219 219 217 216 217 217 212 211 210 211 215 218 218 215 209 206 209 214 222 231 234 236 236 235 238 240
249 191 189 181 186 169 146 151 160 168 171 146 144 134 121 139 139 125 135 114 203 264 241 228 206 170 266 280 212 187 206 200 205 226 226 211 210 210 208 209 208 206 205 205 208 214 218 219 217 215 214 215 219 223 222 214 211 214 218 219 217 214 213 215 218 216 212 211 212 212 217 221 219 217 215 211 210 215 221 226 230 233 234 233 234 236
276 198 189 172 163 156 143 158 173 175 166 141 142 134 118 103 56 58 3 84 188 249 259 216 183 159 232 265 240 232 234 205 196 213 213 201 200 203 206 208 206 202 202 202 205 210 213 214 213 212 212 214 217 220 217 211 209 213 217 219 216 213 213 216 218 216 212 212 214 214 218 222 222 221 220 217 218 220 223 225 228 232 233 231 230 232
246 235 226 166 167 169 156 156 171 181 175 156 151 146 144 151 154 195 219 194 208 245 261 191 159 178 237 244 242 243 245 227 209 213 214 202 195 198 203 205 202 199 199 199 203 206 208 210 209 207 208 212 215 216 213 209 208 213 218 218 213 212 214 217 218 217 215 216 217 217 219 223 224 224 222 220 222 223 225 228 229 234 234 230 228 229
214 243 233 185 172 176 171 165 171 183 182 172 164 163 165 158 172 202 205 184 234 240 238 188 162 244 263 256 235 226 235 235 224 224 221 203 197 199 200 198 195 195 197 199 203 205 207 206 205 205 206 210 214 212 208 208 210 213 215 213 211 211 214 216 217 217 216 218 218 217 221 227 226 222 220 223 225 221 221 225 228 232 231 228 229 233
178 219 214 195 178 172 177 184 163 152 169 182 151 137 159 169 171 192 192 179 209 242 250 199 167 193 203 236 226 219 248 257 230 221 208 197 200 196 192 189 190 194 196 199 203 206 207 204 203 204 206 210 213 207 204 207 210 211 210 209 209 211 213 215 216 215 214 217 219 219 224 227 224 220 220 224 223 215 215 220 222 225 225 228 236 243
175 248 222 194 187 170 174 183 146 137 168 193 117 116 177 190 147 127 171 174 168 197 245 201 204 214 210 245 269 238 277 274 175 178 165 170 180 178 179 182 187 192 194 199 204 205 205 203 204 205 207 211 210 203 202 206 208 209 209 209 210 212 214 215 217 216 215 217 220 223 222 219 218 222 222 218 210 204 209 215 219 221 224 229 238 247
164 283 239 184 193 187 171 166 165 163 166 160 147 170 193 166 126 112 180 139 102 165 236 207 211 269 287 282 337 53 77 91 122 147 149 155 162 167 174 179 186 191 194 199 203 202 202 203 204 206 207 210 207 202 202 205 208 210 211 211 212 213 214 217 219 219 217 216 218 219 215 213 217 223 222 211 200 198 202 208 216 222 225 231 239 250
160 252 258 180 187 211 174 161 176 180 158 146 192 202 149 109 106 103 141 12 65 166 255 234 187 220 222 261 324 48 102 132 141 145 146 153 159 164 171 178 186 191 195 199 199 199 202 204 205 205 207 210 207 203 202 204 209 211 212 213 214 214 216 219 222 219 215 213 212 211 208 208 214 219 216 206 198 201 204 208 215 222 226 230 239 257
168 187 281 196 182 202 170 159 177 197 177 158 179 191 150 146 195 126 136 147 116 171 269 310 226 217 195 223 282 216 179 176 161 157 158 161 164 167 172 180 187 191 194 195 194 197 201 203 203 204 206 208 207 204 203 206 210 211 212 214 214 217 219 222 220 214 211 210 208 206 207 210 212 212 208 202 201 205 207 210 217 220 222 228 245 268
209 148 262 218 182 151 151 172 183 196 201 142 155 178 173 141 168 171 156 161 158 174 231 292 325 257 226 216 213 212 200 178 167 170 171 171 172 172 175 181 187 191 192 192 193 198 199 199 201 202 204 205 205 205 205 207 210 211 213 214 215 219 220 221 217 210 210 211 207 206 211 214 211 204 202 201 201 203 205 210 216 218 221 236 260 276
337 173 190 237 176 146 170 201 183 175 172 160 166 177 177 131 116 151 167 147 135 147 182 171 279 254 245 211 189 208 206 183 179 180 176 173 175 178 181 183 186 189 190 190 192 195 195 196 198 201 204 203 204 206 207 208 209 210 211 212 214 217 217 217 214 211 213 213 208 209 212 213 208 202 200 199 199 201 202 205 212 218 230 248 265 276
233 255 153 182 176 170 180 173 159 164 164 156 164 177 176 167 121 137 195 251 102 128 169 148 259 264 255 205 181 198 197 186 187 186 181 176 177 182 184 183 184 186 187 190 191 191 192 194 197 200 202 202 203 205 206 207 206 204 204 206 209 210 210 212 211 212 215 213 210 210 208 207 207 204 200 198 197 197 198 205 216 226 240 252 262 271
185 130 111 197 198 201 197 159 155 162 160 148 159 181 177 164 133 143 183 210 174 241 146 121 258 270 262 231 200 202 185 169 166 169 177 181 182 183 182 181 183 184 186 187 187 188 189 193 197 198 199 200 201 204 206 205 201 199 200 201 204 205 207 210 209 211 214 212 210 208 202 199 199 199 197 195 194 195 202 213 221 226 237 247 255 264
185 165 265 306 224 309 354 65 150 157 156 164 191 182 172 179 165 147 168 177 181 211 163 108 265 272 279 280 260 210 174 159 156 160 165 172 180 181 177 179 182 183 184 184 183 185 188 192 195 196 196 196 198 204 206 202 197 195 196 198 202 207 206 205 207 211 214 212 207 202 196 190 186 186 192 195 198 206 212 216 218 224 238 247 255 263
189 202 107 92 104 92 45 58 142 177 177 182 194 174 171 181 168 145 138 131 167 207 159 139 235 256 269 312 1 102 143 141 144 155 162 166 172 175 174 177 180 180 180 181 181 183 187 191 194 193 192 191 193 198 203 203 197 194 196 201 206 208 205 207 216 217 213 207 199 191 185 181 178 183 194 198 203 207 208 212 220 231 243 249 256 261
179 201 121 126 140 153 167 174 179 187 175 158 160 163 175 185 178 173 114 109 180 212 151 155 223 264 293 357 39 81 122 127 135 151 161 167 169 171 173 175 177 176 176 178 181 184 187 191 192 191 190 189 190 193 197 200 198 197 202 207 211 212 212 217 221 214 203 198 194 186 178 176 182 188 192 195 200 207 214 222 230 236 242 246 248 246
140 247 161 155 174 179 180 184 160 134 135 142 162 170 185 197 184 161 120 151 186 162 180 213 208 263 298 331 46 91 127 138 148 150 158 165 168 169 171 172 173 173 173 175 180 184 187 188 189 189 189 190 191 192 192 194 198 201 204 204 206 212 218 220 213 203 196 193 190 183 174 175 183 186 188 197 211 223 227 228 232 235 236 232 222 209
38 287 217 179 204 209 185 167 156 148 156 164 162 175 193 190 166 151 163 196 166 132 252 253 188 213 273 265 203 213 150 147 161 155 158 163 164 164 164 165 170 171 171 174 179 184 186 186 187 188 190 191 192 192 191 195 198 200 202 202 204 212 218 214 202 192 188 185 181 179 178 179 181 183 195 211 217 221 224 226 229 226 217 204 188 177
173 271 237 201 217 219 201 185 166 151 155 159 156 171 185 169 162 176 197 203 163 165 241 234 166 204 254 228 201 225 181 144 145 152 158 160 158 158 158 161 167 172 172 173 179 185 187 187 187 189 192 194 194 193 193 196 196 196 200 203 206 211 210 205 196 186 182 182 183 184 187 187 188 196 208 214 216 220 225 222 215 203 189 179 167 159
154 260 240 208 257 360 274 210 176 147 142 154 163 170 170 165 172 181 193 190 167 195 238 182 168 231 249 199 187 214 168 142 139 149 156 157 155 156 158 161 167 174 176 175 179 185 189 189 190 192 194 195 196 197 197 197 196 195 196 197 203 204 198 197 198 190 184 188 190 191 195 200 206 211 211 214 219 223 219 208 194 181 171 161 151 149
183 249 258 125 62 8 13 167 168 151 144 146 155 159 153 151 155 153 150 151 142 275 271 134 149 264 262 170 131 153 146 139 142 153 158 156 156 158 161 164 169 175 178 178 180 184 189 192 193 194 195 196 198 200 199 199 199 198 196 196 201 198 191 192 195 190 187 189 189 191 201 206 207 208 211 217 219 211 202 193 180 169 159 145 140 143
215 249 325 59 76 348 355 101 143 137 131 132 134 147 147 141 141 155 170 168 169 176 138 96 110 266 259 126 114 145 145 139 145 156 155 155 158 161 165 169 171 175 179 181 182 185 190 194 196 196 196 197 200 201 200 200 200 200 198 196 192 189 189 192 189 184 185 187 184 188 200 203 202 205 211 213 203 193 190 182 170 162 151 139 139 144
123 55 310 55 93 340 342 102 123 105 105 137 194 184 163 138 132 138 155 203 182 152 137 154 221 233 191 134 133 155 151 143 150 155 157 159 161 165 171 174 176 178 181 184 185 187 190 193 194 196 197 199 201 201 201 201 200 199 201 198 189 186 190 191 184 180 182 182 182 188 196 200 202 203 204 195 185 184 182 171 162 155 144 137 139 144
59 62 294 174 120 67 338 76 107 101 129 212 235 198 161 135 146 142 152 213 198 159 160 209 232 214 160 144 151 156 149 150 157 162 166 167 166 168 174 178 180 182 183 186 187 187 190 191 192 196 199 201 202 200 199 203 204 204 206 202 191 185 184 183 180 181 181 182 189 194 195 199 201 200 194 184 181 181 176 168 160 150 140 137 141 148
56 109 253 37 104 114 13 58 92 125 213 245 271 220 173 168 166 142 102 189 190 189 279 316 351 119 118 127 144 139 132 143 160 167 172 174 174 175 179 184 186 185 183 183 183 183 186 188 191 196 199 201 202 200 199 203 207 208 205 199 193 187 181 180 181 181 182 191 199 198 197 198 198 195 186 179 178 179 175 169 162 150 143 141 144 151
163 150 173 45 78 126 72 68 110 198 254 297 343 142 143 106 125 117 69 16 201 193 192 100 67 108 107 121 138 135 128 133 146 162 178 185 183 180 183 190 192 189 185 182 182 184 187 193 199 201 201 201 201 200 200 204 210 209 200 195 196 190 180 179 181 179 184 196 199 197 196 195 192 189 182 177 178 179 172 167 162 155 150 146 148 155
171 164 137 62 61 130 112 84 81 351 342 351 359 47 122 51 265 148 132 3 299 217 175 157 139 132 127 124 129 132 130 123 122 155 179 188 189 185 189 194 194 192 189 188 191 194 194 200 204 205 204 203 202 204 204 205 210 208 198 193 192 185 177 178 183 184 189 197 198 198 197 193 190 186 181 178 178 174 169 167 166 162 157 153 154 159
178 212 188 106 64 88 101 85 38 31 13 264 271 282 268 252 238 179 122 82 304 287 184 163 142 140 143 130 135 142 134 113 95 190 180 183 187 187 192 197 195 194 194 195 198 198 197 199 202 204 207 206 205 205 204 206 208 203 194 191 191 184 176 178 187 191 191 192 197 203 201 194 189 184 180 178 174 170 170 171 171 166 158 159 161 161
93 326 95 99 72 57 96 98 95 105 177 253 264 286 321 300 240 156 96 67 290 295 206 176 153 152 159 150 152 153 131 120 239 214 179 179 184 186 190 194 194 195 198 199 201 201 199 199 199 201 204 205 203 201 203 210 208 199 194 195 192 182 171 174 187 191 189 191 196 199 195 188 183 179 176 174 171 173 176 175 173 165 158 160 164 163
26 8 45 81 75 77 95 92 149 185 228 270 265 287 314 315 161 101 95 237 265 292 216 190 173 166 167 162 163 167 150 166 228 211 177 178 182 185 191 195 195 195 196 198 202 204 203 201 199 198 199 201 202 204 209 209 202 197 200 199 186 172 169 178 186 185 185 190 193 190 186 181 176 175 176 175 176 179 181 176 170 164 158 160 164 164
2 360 47 90 87 75 88 91 92 255 260 271 287 301 312 334 77 97 175 228 260 327 208 192 185 179 175 173 176 181 156 163 258 201 181 180 182 184 192 200 201 199 199 200 202 204 204 204 203 201 199 202 208 213 212 205 198 199 203 192 173 165 177 186 185 182 184 187 187 184 182 178 175 177 181 182 182 180 177 171 167 163 159 160 163 164
1 1 19 65 69 56 87 104 79 300 271 291 305 310 323 59 119 176 230 255 308 329 224 195 191 188 185 185 183 140 78 67 71 179 183 185 184 183 191 199 199 197 200 203 205 205 203 202 202 203 204 206 210 211 206 202 203 204 197 181 167 172 186 189 186 184 184 184 183 182 180 175 174 180 184 183 182 176 168 163 163 161 159 160 163 164
92 64 9 6 145 88 65 62 65 164 276 324 327 324 6 97 192 253 297 335 357 1 247 200 197 195 194 195 193 143 100 118 142 173 182 186 185 185 190 196 197 197 197 200 204 204 203 202 200 202 205 206 207 207 203 203 207 202 187 175 174 182 187 187 187 187 186 184 182 179 175 172 174 179 182 179 175 169 162 159 159 158 158 162 164 164
92 134 148 215 186 102 79 56 124 197 270 332 350 17 51 339 299 314 327 337 3 18 18 210 207 205 202 199 199 193 173 179 180 178 182 186 187 189 191 194 198 200 198 199 201 202 204 205 202 203 205 204 205 207 207 210 209 197 183 180 185 185 183 184 187 190 186 181 177 173 170 170 172 176 177 172 168 166 161 158 158 156 159 163 165 164
329 208 166 157 151 112 141 202 233 239 293 343 7 40 17 16 22 11 353 343 350 355 353 325 230 216 212 206 204 203 197 198 199 189 187 190 191 191 192 195 199 201 200 200 200 201 205 208 207 205 203 202 203 205 207 210 205 191 183 188 191 188 186 187 188 188 181 174 172 170 168 169 172 174 173 171 170 169 165 161 160 158 160 163 164 165
293 261 115 111 238 3 88 181 304 330 355 16 37 48 36 38 36 22 11 359 355 351 343 344 315 226 217 212 209 208 203 201 209 202 195 195 194 194 194 196 198 200 202 201 200 200 202 205 207 206 202 198 200 201 202 204 201 191 188 193 194 193 193 189 184 180 174 171 170 169 168 171 173 173 172 174 176 176 172 168 165 162 161 162 164 165
324 43 49 43 37 52 70 328 331 349 13 29 47 56 46 42 34 20 15 5 359 357 349 345 341 262 222 216 215 213 206 205 218 213 202 198 197 196 197 197 197 200 202 202 201 200 201 203 204 205 202 199 199 200 200 200 198 195 195 194 192 191 189 183 180 177 172 170 171 171 172 174 174 173 177 179 180 182 181 176 170 166 164 165 166 167
316 6 18 28 38 73 189 289 330 20 57 45 48 50 40 38 33 16 11 7 4 4 358 353 350 322 233 218 218 215 206 204 214 210 201 200 200 199 199 198 198 200 202 204 205 203 204 207 207 207 206 203 201 202 201 197 194 195 196 194 190 186 180 178 178 176 172 171 172 173 174 176 175 177 181 181 183 186 185 178 172 170 168 168 171 173
301 340 342 114 35 25 313 327 355 42 56 35 40 45 37 34 29 14 4 4 6 8 6 4 2 348 275 228 222 215 204 202 208 199 190 191 195 198 200 199 199 200 201 204 207 208 210 211 211 209 206 203 202 202 199 195 194 195 194 193 189 182 176 175 176 174 172 172 173 174 175 177 179 181 181 181 183 185 183 176 170 168 167 167 168 172
8 341 322 80 58 42 275 326 1 76 340 350 19 37 37 33 28 18 7 5 10 12 9 7 6 359 321 243 226 217 210 215 219 208 199 205 207 202 200 201 201 201 203 206 208 210 212 214 215 212 206 201 202 201 195 194 197 194 191 192 189 181 176 175 174 174 174 173 173 176 178 179 181 181 181 181 180 178 176 172 169 168 166 160 153 148
60 207 206 116 118 183 266 322 350 121 234 322 16 35 36 33 28 21 14 12 15 17 14 11 10 5 346 272 235 225 226 233 232 223 222 224 220 215 213 211 207 205 207 209 208 206 207 210 212 211 205 202 202 197 193 196 197 191 188 190 188 181 180 179 176 176 176 175 176 179 180 181 180 180 181 180 177 175 174 171 169 167 162 153 146 140